User: anonymous   Login
Location: Unspecified
(0.0000°N, 0.0000°E)
Time: 01:31:24
(UTC+00:00)
Language:

OBJECT E - Orbit

View from above orbital plane
View from above orbital plane
View from above satellite
View from above satellite

Ground track
Ground track

The orbit data is extracted from the following two-line orbital elements,

1 41845U 16066E   17117.73265170 -.00000069 +00000-0 +00000-0 0  9995
2 41845 098.7794 132.1517 0367445 038.1833 324.4852 14.37732542024241
Epoch (UTC): 27 April 2017 17:35:01
Eccentricity: 0.0367445
inclination: 98.7794°
perigee height: 503 km
apogee height: 1028 km
right ascension of ascending node: 132.1517°
argument of perigee: 38.1833°
revolutions per day: 14.37732542
mean anomaly at epoch: 324.4852°
orbit number at epoch: 2424

The dashed part of the orbit path shows where the satellite is in the earth's shadow,  

DLR